Location: Bagnolo San Vito
(45.0833°N, 10.8833°E)
Time: 23:48:01
(UTC+00:00)

SL-8 Rocket - Pass Details

Date: 03 March 2021
Orbit: 957 x 991 km, 82.9° (Epoch: 17 April)

Event Time Altitude Azimuth Distance (km) Brightness Sun altitude
Rises 18:05:40 0° 160° (SSE) 3,669 6.8 -11.2°
Reaches altitude 10° 18:08:22 10° 152° (SSE) 2,721 6.0 -11.7°
Maximum altitude 18:13:57 36° 88° (E) 1,493 4.5 -12.7°
Drops below altitude 10° 18:19:32 10° 24° (NNE) 2,717 6.1 -13.6°
Sets 18:22:13 0° 16° (NNE) 3,663 6.9 -14.1°
